Location: Ç?ral? Körfezi
(36.3984°N, 30.4829°E)
Time: 10:20:01
(UTC+00:00)

COSMOS 2455 - Pass Details

Date: 04 August 2024
Orbit: 898 x 911 km, 67.2° (Epoch: 18 September)

Event Time Altitude Azimuth Distance (km) Brightness Sun altitude
Rises 17:52:01 0° 343° (NNW) 3,547 6.7 -10.1°
Reaches altitude 10° 17:54:57 10° 355° (N) 2,602 5.7 -10.7°
Maximum altitude 18:00:01 27° 52° (NE) 1,671 4.1 -11.5°
Enters shadow 18:04:00 14° 102° (ESE) 2,289 4.4 -12.2°
